Weather reports worldwide

Advertisment
Shoreham Airport, United Kingdom (3876): temperature & dewpoint: 11.07.2019 08:00:00 - 17.07.2019 08:00:00 (BST)Shoreham Airport, United Kingdom (3876): wind speed: 11.07.2019 08:00:00 - 17.07.2019 08:00:00 (BST)Shoreham Airport, United Kingdom (3876): wind direction: 11.07.2019 08:00:00 - 17.07.2019 08:00:00 (BST)Shoreham Airport, United Kingdom (3876): reduced air pressure: 11.07.2019 08:00:00 - 17.07.2019 08:00:00 (BST)Shoreham Airport, United Kingdom (3876): visibility: 11.07.2019 08:00:00 - 17.07.2019 08:00:00 (BST)Shoreham Airport, United Kingdom (3876): precipitation: 11.07.2019 08:00:00 - 17.07.2019 08:00:00 (BST)
Date & Time tt [°C] td [°C] ff [km/h] ff [kn] dd ppp [hPa] vv [km] rr [mm]
17.07.2019 08:00:00 17,5 14,8 2 1 WNW 1015,8 10 0,0
17.07.2019 07:00:00 13,0 12,3 4 2 N 1015,7 - 0,0
17.07.2019 06:00:00 10,1 9,8 8 4 N 1016,0 - 0,0
17.07.2019 05:00:00 9,5 8,9 8 4 N 1016,1 - 0,0
17.07.2019 04:00:00 10,2 9,4 11 6 N 1016,4 - 0,0
17.07.2019 03:00:00 11,4 10,4 5 3 E 1016,9 - 0,0
17.07.2019 02:00:00 12,9 11,5 11 6 N 1017,2 - 0,0
17.07.2019 01:00:00 12,4 11,6 11 6 N 1017,5 - 0,0
17.07.2019 00:00:00 12,7 11,8 5 3 N 1017,8 - 0,0
16.07.2019 23:00:00 12,9 11,6 5 3 NW 1018,0 - 0,0
16.07.2019 22:00:00 13,9 11,7 5 3 N 1018,1 - 0,0
16.07.2019 21:00:00 15,7 11,2 5 3 SSW 1017,9 - 0,0
16.07.2019 20:00:00 17,6 11,7 5 3 S 1018,3 10 0,0
16.07.2019 19:00:00 17,9 12,1 8 4 SSW 1018,4 10 0,0
16.07.2019 18:00:00 18,2 12,4 13 7 SSW 1018,7 10 0,0
16.07.2019 17:00:00 18,4 12,4 15 8 S 1019,1 10 0,0
16.07.2019 16:00:00 19,1 12,9 16 9 S 1019,5 10 0,0
16.07.2019 15:00:00 18,8 12,5 16 9 S 1019,8 10 0,0
16.07.2019 14:00:00 19,0 12,3 16 9 S 1020,0 10 0,0
16.07.2019 13:00:00 19,4 13,1 15 8 S 1020,1 10 0,0
16.07.2019 12:00:00 18,8 13,2 16 9 S 1020,1 10 0,0
16.07.2019 11:00:00 18,6 13,1 15 8 SSE 1020,3 10 0,0
16.07.2019 10:00:00 18,2 13,0 13 7 S 1020,4 10 -
16.07.2019 09:00:00 17,9 13,7 4 2 NNE 1020,8 10 -
16.07.2019 08:00:00 14,9 12,6 5 3 N 1021,0 10 0,0
16.07.2019 07:00:00 12,7 11,9 11 6 N 1020,7 - 0,0
16.07.2019 06:00:00 10,9 10,5 11 6 N 1020,5 - 0,0
16.07.2019 05:00:00 10,8 10,1 11 6 N 1020,5 - 0,0
16.07.2019 04:00:00 10,4 9,4 8 4 N 1020,7 - 0,0
16.07.2019 03:00:00 12,0 10,4 4 2 N 1020,9 - 0,0
16.07.2019 02:00:00 14,4 12,0 5 3 N 1021,3 - 0,0
16.07.2019 01:00:00 14,9 12,2 8 4 N 1021,7 - 0,0
16.07.2019 00:00:00 16,2 12,4 8 4 ESE 1021,9 - 0,0
15.07.2019 23:00:00 16,2 12,8 8 4 SE 1021,8 - 0,0
15.07.2019 22:00:00 15,2 12,0 5 3 SSE 1021,9 - 0,0
15.07.2019 21:00:00 15,6 10,6 9 5 SSE 1021,6 - 0,0
15.07.2019 20:00:00 17,1 10,3 9 5 SSE 1021,4 10 0,0
15.07.2019 19:00:00 17,9 9,5 8 4 SSE 1021,3 10 0,0
15.07.2019 18:00:00 18,2 10,0 9 5 SSE 1021,3 10 0,0
15.07.2019 17:00:00 18,7 10,3 13 7 S 1021,6 10 0,0
15.07.2019 16:00:00 19,3 10,8 15 8 S 1021,9 10 0,0
15.07.2019 15:00:00 19,1 9,8 11 6 ENE 1022,2 10 0,0
15.07.2019 14:00:00 18,8 10,5 11 6 NE 1022,5 10 0,0
15.07.2019 13:00:00 18,7 9,5 13 7 NE 1022,8 10 0,0
15.07.2019 12:00:00 16,9 9,6 11 6 NNE 1022,9 10 0,0
15.07.2019 11:00:00 16,0 9,0 13 7 NE 1023,1 10 0,0
15.07.2019 10:00:00 15,1 9,0 15 8 NE 1023,3 10 0,0
15.07.2019 09:00:00 14,9 9,0 15 8 NE 1023,2 10 0,0
15.07.2019 08:00:00 14,2 9,7 11 6 NNE 1022,9 10 0,0
15.07.2019 07:00:00 12,6 10,9 9 5 NNE 1022,7 - 0,0
15.07.2019 06:00:00 11,0 10,0 13 7 NNW 1022,8 - 0,0
15.07.2019 05:00:00 10,0 9,2 8 4 N 1022,8 - 0,0
15.07.2019 04:00:00 10,2 9,4 8 4 N 1022,7 - 0,0
15.07.2019 03:00:00 11,6 10,7 8 4 N 1022,8 - 0,0
15.07.2019 02:00:00 13,3 12,1 5 3 N 1023,1 - 0,0
15.07.2019 01:00:00 14,3 12,9 8 4 N 1023,2 - 0,0
15.07.2019 00:00:00 14,6 13,4 11 6 N 1023,2 - 0,0
14.07.2019 23:00:00 13,1 11,4 2 1 WNW 1023,1 - 0,0
14.07.2019 22:00:00 14,9 11,8 4 2 S 1023,0 - 0,0
14.07.2019 21:00:00 16,3 12,6 8 4 SSE 1022,6 - 0,0
14.07.2019 20:00:00 17,5 12,9 8 4 S 1022,4 - 0,0
14.07.2019 19:00:00 17,7 13,3 13 7 SSE 1022,6 10 0,0
14.07.2019 18:00:00 18,4 13,9 11 6 S 1022,4 10 0,0
14.07.2019 17:00:00 18,3 13,9 11 6 S 1022,6 10 0,0
14.07.2019 16:00:00 19,0 14,3 15 8 SSW 1022,6 10 0,0
14.07.2019 15:00:00 18,5 14,1 5 3 SSW 1022,8 10 0,0
14.07.2019 14:00:00 18,8 14,5 13 7 S 1023,0 10 0,0
14.07.2019 13:00:00 19,5 12,4 13 7 E 1023,0 10 0,0
14.07.2019 12:00:00 20,4 12,4 13 7 NE 1023,0 10 0,0
14.07.2019 11:00:00 17,2 13,8 15 8 N 1023,3 10 0,0
14.07.2019 10:00:00 17,8 13,1 16 9 N 1023,1 10 0,0
14.07.2019 09:00:00 17,7 14,4 11 6 N 1022,9 10 0,0
14.07.2019 08:00:00 15,0 14,8 9 5 N 1022,6 - 0,0
14.07.2019 07:00:00 13,1 12,9 16 9 N 1022,5 - 0,0
14.07.2019 06:00:00 12,9 12,7 8 4 N 1022,1 - 0,0
14.07.2019 05:00:00 11,4 10,9 8 4 N 1021,9 - 0,0
14.07.2019 04:00:00 12,0 11,5 9 5 N 1022,2 - 0,0
14.07.2019 03:00:00 12,7 11,8 8 4 N 1022,5 - 0,0
14.07.2019 02:00:00 14,1 13,2 8 4 NNE 1022,6 - 0,0
14.07.2019 01:00:00 14,4 13,3 8 4 N 1022,3 - 0,0
14.07.2019 00:00:00 15,2 12,8 2 1 NNE 1022,1 - 0,0
13.07.2019 23:00:00 14,5 12,6 8 4 NNE 1021,8 - 0,0
13.07.2019 22:00:00 15,6 13,3 8 4 N 1021,9 - 0,0
13.07.2019 21:00:00 17,2 13,8 2 1 S 1021,6 - 0,0
13.07.2019 20:00:00 18,6 14,3 2 1 SSE 1021,5 10 0,0
13.07.2019 19:00:00 19,3 14,0 9 5 S 1021,6 10 0,0
13.07.2019 18:00:00 19,8 13,7 13 7 S 1021,7 10 0,0
13.07.2019 17:00:00 20,4 13,5 13 7 S 1021,6 10 0,0
13.07.2019 16:00:00 20,7 14,0 16 9 S 1021,8 10 0,0
13.07.2019 15:00:00 21,5 14,3 21 11 SSW 1021,7 10 0,0
13.07.2019 14:00:00 21,1 12,9 21 11 S 1021,9 10 0,0
13.07.2019 13:00:00 20,8 13,9 18 10 SSW 1022,0 10 0,0
13.07.2019 12:00:00 21,5 12,0 9 5 NNW 1021,7 10 0,0
13.07.2019 11:00:00 20,9 13,0 13 7 N 1021,6 10 0,0
13.07.2019 10:00:00 19,6 12,5 21 11 N 1021,4 10 0,0
13.07.2019 09:00:00 18,3 12,3 22 12 N 1021,4 10 0,0
13.07.2019 08:00:00 16,5 12,3 28 15 NNW 1021,1 - 0,0
13.07.2019 07:00:00 15,1 12,5 22 12 N 1020,7 - 0,0
13.07.2019 06:00:00 14,1 12,2 21 11 N 1020,1 - 0,0
13.07.2019 05:00:00 14,3 12,1 18 10 N 1019,9 - 0,0
13.07.2019 04:00:00 14,6 12,0 18 10 N 1019,7 - 0,0
13.07.2019 03:00:00 15,4 12,5 16 9 NNW 1019,8 - 0,0
13.07.2019 02:00:00 15,0 11,5 8 4 NW 1019,3 - 0,0
13.07.2019 01:00:00 16,0 11,9 8 4 NNW 1019,6 - 0,0
13.07.2019 00:00:00 16,4 11,1 5 3 NNW 1019,3 - 0,0
12.07.2019 23:00:00 17,2 11,4 5 3 N 1018,9 - 0,0
12.07.2019 22:00:00 17,9 10,9 8 4 NW 1018,2 - 0,0
12.07.2019 21:00:00 20,0 10,9 11 6 NW 1017,3 - 0,0
12.07.2019 20:00:00 22,7 10,3 16 9 NNW 1016,7 10 0,0
12.07.2019 19:00:00 24,0 10,7 21 11 NNW 1016,0 10 0,0
12.07.2019 18:00:00 25,3 10,9 18 10 NW 1015,5 10 0,0
12.07.2019 17:00:00 25,0 11,6 16 9 NNW 1015,2 10 0,0
12.07.2019 16:00:00 24,2 10,8 9 5 NNW 1015,3 10 0,0
12.07.2019 15:00:00 22,4 15,7 16 9 WSW 1015,2 10 0,0
12.07.2019 14:00:00 24,2 12,8 13 7 WNW 1015,1 10 0,0
12.07.2019 13:00:00 25,2 12,4 13 7 WNW 1014,9 10 0,0
12.07.2019 12:00:00 23,3 13,3 15 8 NW 1014,8 10 0,0
12.07.2019 11:00:00 21,9 13,6 9 5 NW 1014,6 10 0,0
12.07.2019 10:00:00 21,8 14,0 15 8 NNW 1014,4 10 0,0
12.07.2019 09:00:00 19,5 15,0 16 9 NW 1014,3 10 0,0
12.07.2019 08:00:00 18,5 15,1 16 9 W 1014,1 10 0,0
12.07.2019 07:00:00 17,8 14,8 15 8 W 1013,7 - 0,0
12.07.2019 06:00:00 17,1 14,4 9 5 WNW 1013,3 - 0,0
12.07.2019 05:00:00 16,7 14,8 9 5 W 1013,1 - 0,0
12.07.2019 04:00:00 16,6 14,6 9 5 W 1013,0 - 0,0
12.07.2019 03:00:00 17,3 14,7 4 2 SSW 1013,0 - 0,0
12.07.2019 02:00:00 18,1 15,1 2 1 NNE 1013,0 - 0,0
12.07.2019 01:00:00 18,4 15,2 11 6 W 1013,2 - 0,0
12.07.2019 00:00:00 17,8 15,0 15 8 WSW 1013,0 - 0,0
11.07.2019 23:00:00 18,2 14,7 15 8 W 1013,1 - 0,0
11.07.2019 22:00:00 19,1 15,2 21 11 W 1013,1 - 0,0
11.07.2019 21:00:00 19,2 16,1 13 7 WSW 1012,3 - 0,0
11.07.2019 20:00:00 21,0 16,6 16 9 WSW 1012,2 10 0,0
11.07.2019 19:00:00 20,7 16,0 22 12 WSW 1012,4 10 0,0
11.07.2019 18:00:00 21,7 14,9 26 14 SW 1012,5 10 0,0
11.07.2019 17:00:00 21,4 14,9 28 15 SW 1012,7 10 0,0
11.07.2019 16:00:00 21,3 16,0 28 15 SW 1013,0 10 0,0
11.07.2019 15:00:00 21,7 15,4 26 14 SW 1013,1 10 0,0
11.07.2019 14:00:00 21,1 15,6 26 14 SSW 1013,1 10 0,0
11.07.2019 13:00:00 21,2 14,6 22 12 SSW 1013,1 10 0,0
11.07.2019 12:00:00 21,0 15,2 18 10 SSW 1013,4 10 0,0
11.07.2019 11:00:00 21,4 12,9 16 9 SSW 1013,4 10 0,0
11.07.2019 10:00:00 20,0 12,4 5 3 N 1013,5 10 0,0
11.07.2019 09:00:00 18,3 12,7 5 3 SSW 1013,7 10 0,0
11.07.2019 08:00:00 17,2 14,3 5 3 W 1013,5 9 0,0

tt = temperature
td = dewpoint
ff = wind speed
dd = wind direction
ppp = reduced air pressure
vv = visibility
rr = precipitation

Next stations